Flag for U.S.A. Weather past 2 weeks in Ontario, California, U.S.A.

Now
60 °F

Passing clouds.


Feels Like: 60 °F
Forecast: 56 / 78 °F
Wind: 3 mph from West

Location: Ontario International Airport


UV Index: 5 (Moderate)

Visibility: 10 mi


Pressure: 29.92 "Hg

Humidity: 72%

Dew point: 51 °F

Location of OntarioLocation

Historic Weather in Ontario

°F

Ontario temperature yesterday

Maximum temperature yesterday: 75 °F (at 2:53 PM)
Minimum temperature yesterday: 59 °F (at 12:53 AM)
Average temperature yesterday: 64 °F

Past Weeks' High & Low Weather Summary

 TemperatureHumidityPressure
High92 °F (Apr 8, 3:53 PM)93% (Apr 16, 4:53 AM)30.09 "Hg (Apr 16, 4:53 AM)
Low48 °F (Apr 5, 3:53 AM)3% (Apr 9, 2:53 PM)29.74 "Hg (Apr 16, 3:53 PM)
Average66 °F46%29.93 "Hg
* Reported Apr 3 11:53 PM — Apr 18 11:53 PM, Ontario, Weather by CustomWeather, © 2014

Note: Actual official high and low records may vary slightly from our data, if they occured in-between our weather recording intervals... More about our weather records

Advertising

Historic Weather Conditions — Data for Previous 24 hours

 ConditionsComfort  
Time TempWeatherWind HumidityBarometerVisibility
11:53 PM
Apr 18
60 °FPassing clouds.3 mph72%29.92 "Hg10 mi
10:53 PM61 °FPassing clouds.8 mph67%29.91 "Hg10 mi
9:53 PM61 °FPassing clouds.6 mph72%29.91 "Hg10 mi
8:53 PM62 °FPartly cloudy.8 mph67%29.90 "Hg10 mi
7:53 PM64 °FBroken clouds.10 mph61%29.87 "Hg10 mi
6:53 PM66 °FPartly sunny.13 mph59%29.85 "Hg10 mi
5:53 PM71 °FPartly sunny.14 mph51%29.83 "Hg10 mi
4:53 PM73 °FPartly sunny.16 mph46%29.82 "Hg10 mi
3:53 PM73 °FPartly sunny.10 mph43%29.82 "Hg10 mi
2:53 PM75 °FSunny.8 mph37%29.84 "Hg10 mi
1:53 PM72 °FPartly sunny.9 mph43%29.86 "Hg10 mi
12:53 PM70 °FPartly sunny.N/A47%29.88 "Hg10 mi
11:53 AM68 °FOvercast.3 mph51%29.89 "Hg10 mi
10:53 AM64 °FMostly cloudy.5 mph63%29.91 "Hg7 mi
9:53 AM62 °FCloudy.5 mph70%29.92 "Hg5 mi
8:53 AM60 °FMostly cloudy.7 mph78%29.90 "Hg5 mi
7:53 AM59 °FMostly cloudy.9 mph81%29.89 "Hg5 mi
6:53 AM59 °FMostly cloudy.8 mph81%29.85 "Hg5 mi
5:53 AM59 °FOvercast.6 mph81%29.84 "Hg6 mi
4:53 AM59 °FOvercast.5 mph81%29.84 "Hg6 mi
3:53 AM59 °FOvercast.No wind81%29.84 "Hg9 mi
2:53 AM59 °FOvercast.No wind81%29.85 "Hg8 mi
1:53 AM59 °FMostly cloudy.5 mph81%29.86 "Hg9 mi
12:53 AM59 °FOvercast.8 mph81%29.88 "Hg10 mi
Weather by CustomWeather, © 2014

See weather overview